FW5225 Weather Reports


time (UTC)temp
C
wind
direction
speed
KPH
gust
KPH
rain 1hr
cm
rain 24hr
cm
rain mn
cm
humidity
%
barometer
mb
20260831175058 27 75 8.0 17.7 0.00 0.00 0.00 58 1013.0
20260831174626 27 110 3.2 12.9 0.00 0.00 0.00 59 1013.0
20260831174057 27 61 1.6 16.1 0.00 0.00 0.00 60 1013.0
20260831173556 27 67 8.0 16.1 0.00 0.00 0.00 61 1013.1
20260831173055 27 70 6.4 14.5 0.00 0.00 0.00 61 1013.1
20260831172554 26 76 6.4 16.1 0.00 0.00 0.00 61 1013.1
20260831172053 26 97 9.7 14.5 0.00 0.00 0.00 61 1013.1
20260831171552 26 67 4.8 17.7 0.00 0.00 0.00 60 1013.1
20260831171052 26 87 8.0 20.9 0.00 0.00 0.00 60 1013.1
20260831170552 26 55 6.4 20.9 0.00 0.00 0.00 61 1013.1
20260831170056 26 65 6.4 16.1 0.00 0.00 0.00 60 1013.0
20260831165555 26 82 6.4 16.1 0.00 0.00 0.00 60 1013.0
20260831165054 26 76 4.8 17.7 0.00 0.00 0.00 61 1013.0
20260831164555 26 36 11.3 17.7 0.00 0.00 0.00 65 1013.0
20260831164050 26 82 9.7 17.7 0.00 0.00 0.00 65 1012.9
20260831163549 26 45 9.7 17.7 0.00 0.00 0.00 67 1013.0
20260831163048 26 62 6.4 16.1 0.00 0.00 0.00 67 1012.8
20260831162547 26 98 4.8 20.9 0.00 0.00 0.00 68 1012.7
20260831162045 26 88 11.3 20.9 0.00 0.00 0.00 68 1012.7
20260831161544 26 90 9.7 19.3 0.00 0.00 0.00 68 1012.8
20260831161043 26 42 4.8 19.3 0.00 0.00 0.00 68 1012.6
20260831160542 26 55 8.0 19.3 0.00 0.00 0.00 68 1012.4
20260831160043 26 59 6.4 17.7 0.00 0.00 0.00 68 1012.4
20260831155541 26 86 1.6 11.3 0.00 0.00 0.00 69 1012.4
20260831155041 26 50 0.0 9.7 0.00 0.00 0.00 69 1012.4
20260831154544 26 85 3.2 12.9 0.00 0.00 0.00 69 1012.2
20260831154039 26 78 1.6 12.9 0.00 0.00 0.00 69 1012.3
20260831153541 26 107 1.6 11.3 0.00 0.00 0.00 68 1012.2
20260831153050 26 86 3.2 17.7 0.00 0.00 0.00 68 1012.3
20260831152539 26 156 6.4 17.7 0.00 0.00 0.00 67 1012.3
20260831152037 26 165 4.8 19.3 0.00 0.00 0.00 67 1012.3
20260831151544 26 98 6.4 16.1 0.00 0.00 0.00 66 1012.2
20260831151037 26 88 8.0 16.1 0.00 0.00 0.00 65 1012.1
20260831150537 26 190 1.6 16.1 0.00 0.00 0.00 64 1012.1
20260831150033 26 123 6.4 16.1 0.00 0.00 0.00 64 1012.0
20260831145533 26 120 0.0 16.1 0.00 0.00 0.00 64 1011.9
20260831145032 26 136 3.2 16.1 0.00 0.00 0.00 63 1011.8
20260831144528 26 117 1.6 14.5 0.00 0.00 0.00 63 1011.5
20260831144028 26 135 1.6 14.5 0.00 0.00 0.00 63 1011.4
20260831143529 26 114 1.6 16.1 0.00 0.00 0.00 63 1011.3
20260831143024 27 86 1.6 14.5 0.00 0.00 0.00 62 1011.3
20260831142524 27 136 4.8 16.1 0.00 0.00 0.00 61 1011.1
20260831142024 27 150 6.4 16.1 0.00 0.00 0.00 59 1011.0
20260831141522 27 80 3.2 11.3 0.00 0.00 0.00 59 1010.8
20260831141020 27 42 1.6 8.0 0.00 0.00 0.00 59 1010.7
20260831140522 27 56 0.0 6.4 0.00 0.00 0.00 59 1010.5
20260831140017 27 75 1.6 8.0 0.00 0.00 0.00 59 1010.4
20260831135516 26 47 1.6 8.0 0.00 0.00 0.00 59 1010.2
20260831135015 26 57 1.6 4.8 0.00 0.00 0.00 58 1010.0
20260831134518 26 72 0.0 4.8 0.00 0.00 0.00 58 1009.9
20260831134013 26 51 0.0 3.2 0.00 0.00 0.00 58 1009.8
20260831133512 26 79 0.0 1.6 0.00 0.00 0.00 57 1009.7
20260831133014 26 79 0.0 3.2 0.00 0.00 0.00 57 1009.6
20260831132511 27 34 0.0 0.0 0.00 0.00 0.00 58 1009.4
20260831132010 27 34 0.0 3.2 0.00 0.00 0.00 58 1009.4
20260831131509 27 33 0.0 3.2 0.00 0.00 0.00 57 1009.3
20260831131011 27 147 0.0 3.2 0.00 0.00 0.00 56 1009.3
20260831130508 27 105 0.0 3.2 0.00 0.00 0.00 56 1009.3
20260831130009 27 63 0.0 0.0 0.00 0.00 0.00 58 1009.1
20260831125507 27 115 0.0 1.6 0.00 0.00 0.00 56 1009.1
20260831125007 27 115 0.0 3.2 0.00 0.00 0.00 56 1009.2
20260831124507 27 95 0.0 1.6 0.00 0.00 0.00 55 1009.1
20260831124005 27 78 0.0 3.2 0.00 0.00 0.00 55 1009.0
20260831123508 27 106 0.0 3.2 0.00 0.00 0.00 55 1009.0
20260831123007 27 143 0.0 3.2 0.00 0.00 0.00 54 1009.0
20260831122505 27 146 0.0 3.2 0.00 0.00 0.00 53 1008.9
20260831122005 27 175 0.0 4.8 0.00 0.00 0.00 52 1008.9
20260831121505 27 57 0.0 4.8 0.00 0.00 0.00 52 1009.0
20260831121003 27 56 0.0 4.8 0.00 0.00 0.00 51 1008.8
20260831120503 27 130 0.0 3.2 0.00 0.00 0.00 50 1008.9
20260831120002 27 51 0.0 4.8 0.00 0.00 0.00 51 1008.7
20260831115501 27 355 0.0 8.0 0.00 0.00 0.00 51 1008.5
20260831115000 27 355 1.6 8.0 0.00 0.00 0.00 51 1008.4
20260831114603 27 5 0.0 9.7 0.00 0.00 0.00 51 1008.4
20260831114100 27 57 4.8 9.7 0.00 0.00 0.00 50 1008.4
20260831113600 27 28 1.6 11.3 0.00 0.00 0.00 50 1008.4
20260831113108 27 15 1.6 11.3 0.00 0.00 0.00 51 1008.3
20260831113001 27 55 1.6 11.3 0.00 0.00 0.00 51 1008.3
20260831112559 27 338 3.2 11.3 0.00 0.00 0.00 51 1008.3
20260831112058 27 31 4.8 11.3 0.00 0.00 0.00 51 1008.1
20260831111557 26 42 1.6 11.3 0.00 0.00 0.00 52 1008.0
20260831111058 26 40 3.2 9.7 0.00 0.00 0.00 53 1008.0
20260831110557 26 46 4.8 9.7 0.00 0.00 0.00 54 1008.0
20260831110058 26 27 1.6 9.7 0.00 0.00 0.00 54 1007.9
20260831105559 26 348 3.2 11.3 0.00 0.00 0.00 55 1007.9
20260831105127 26 52 6.4 11.3 0.00 0.00 0.00 55 1007.8
20260831104600 26 5 4.8 9.7 0.00 0.00 0.00 55 1007.8
20260831104057 26 42 3.2 14.5 0.00 0.00 0.00 56 1007.9
20260831103557 26 42 4.8 14.5 0.00 0.00 0.00 57 1007.8
20260831103100 26 344 3.2 9.7 0.00 0.00 0.00 57 1007.7
20260831102556 26 19 3.2 9.7 0.00 0.00 0.00 57 1007.8
20260831102056 26 36 1.6 9.7 0.00 0.00 0.00 60 1007.8
20260831101555 26 5 4.8 9.7 0.00 0.00 0.00 60 1007.8
20260831101055 26 41 6.4 11.3 0.00 0.00 0.00 59 1007.8
20260831100554 26 49 6.4 11.3 0.00 0.00 0.00 59 1008.0
20260831100054 26 19 4.8 9.7 0.00 0.00 0.00 59 1008.1
20260831095553 26 19 3.2 9.7 0.00 0.00 0.00 59 1008.1
20260831095052 26 64 4.8 11.3 0.00 0.00 0.00 59 1008.1
20260831094602 26 57 3.2 11.3 0.00 0.00 0.00 59 1008.0
20260831094051 26 76 4.8 11.3 0.00 0.00 0.00 58 1008.1
20260831093550 27 92 1.6 9.7 0.00 0.00 0.00 57 1008.0
20260831093136 27 87 0.0 9.7 0.00 0.00 0.00 56 1008.0
20260831092548 27 105 3.2 11.3 0.00 0.00 0.00 55 1007.9
20260831092047 27 58 4.8 11.3 0.00 0.00 0.00 55 1007.8
20260831091550 27 65 3.2 11.3 0.00 0.00 0.00 54 1007.8
20260831091045 27 46 3.2 16.1 0.00 0.00 0.00 53 1007.8
20260831090544 27 59 3.2 16.1 0.00 0.00 0.00 53 1007.8
20260831090043 28 55 8.0 17.7 0.00 0.00 0.00 51 1007.7
20260831085541 28 45 8.0 19.3 0.00 0.00 0.00 48 1007.5
20260831085040 28 80 9.7 22.5 0.00 0.00 0.00 47 1007.4
20260831084625 28 69 14.5 27.4 0.00 0.00 0.00 45 1007.2
20260831084037 29 30 16.1 30.6 0.00 0.00 0.00 44 1007.1
20260831083537 29 28 16.1 30.6 0.00 0.00 0.00 43 1007.1
20260831083045 30 88 12.9 24.1 0.00 0.00 0.00 41 1006.9
20260831082537 30 40 17.7 24.1 0.00 0.00 0.00 40 1006.9
20260831082037 30 57 12.9 24.1 0.00 0.00 0.00 40 1006.8
20260831081537 30 26 9.7 22.5 0.00 0.00 0.00 41 1006.8
20260831081037 30 56 16.1 22.5 0.00 0.00 0.00 41 1006.8
20260831080535 30 40 12.9 27.4 0.00 0.00 0.00 41 1006.8
20260831080043 30 53 11.3 27.4 0.00 0.00 0.00 41 1006.9
20260831075535 30 35 11.3 29.0 0.00 0.00 0.00 41 1007.0
20260831075033 30 360 17.7 33.8 0.00 0.00 0.00 42 1007.1
20260831074543 30 40 17.7 30.6 0.00 0.00 0.00 43 1007.1
20260831074032 30 27 14.5 33.8 0.00 0.00 0.00 45 1007.2
20260831073531 29 63 16.1 33.8 0.00 0.00 0.00 45 1007.2
20260831073031 29 5 22.5 32.2 0.00 0.00 0.00 46 1007.2
20260831072529 29 5 17.7 35.4 0.00 0.00 0.00 47 1007.1
20260831072028 29 29 17.7 35.4 0.00 0.00 0.00 48 1007.2
20260831071536 29 24 17.7 30.6 0.00 0.00 0.00 48 1007.3
20260831071027 29 31 14.5 30.6 0.00 0.00 0.00 47 1007.3
20260831070525 30 59 16.1 27.4 0.00 0.00 0.00 47 1007.3
20260831070029 30 333 12.9 24.1 0.00 0.00 0.00 47 1007.2
20260831065526 30 360 11.3 29.0 0.00 0.00 0.00 46 1007.4
20260831065025 30 337 11.3 30.6 0.00 0.00 0.00 45 1007.5
20260831064527 30 355 17.7 30.6 0.00 0.00 0.00 46 1007.3
20260831064024 30 5 17.7 27.4 0.00 0.00 0.00 44 1007.4
20260831063523 30 360 12.9 30.6 0.00 0.00 0.00 46 1007.4
20260831063023 29 328 17.7 30.6 0.00 0.00 0.00 48 1007.5
20260831062524 28 325 16.1 30.6 0.00 0.00 0.00 51 1007.6
20260831062022 28 333 17.7 30.6 0.00 0.00 0.00 53 1007.7
20260831061521 28 5 12.9 30.6 0.00 0.00 0.00 55 1007.8
20260831061021 28 348 11.3 24.1 0.00 0.00 0.00 57 1007.9
20260831060518 29 13 9.7 19.3 0.00 0.00 0.00 54 1007.8
20260831060018 30 350 11.3 19.3 0.00 0.00 0.00 52 1008.0
20260831055518 30 338 8.0 19.3 0.00 0.00 0.00 50 1008.2
20260831055018 30 343 6.4 19.3 0.00 0.00 0.00 50 1008.4
20260831054521 30 326 3.2 12.9 0.00 0.00 0.00 50 1008.6
20260831054018 29 344 8.0 19.3 0.00 0.00 0.00 50 1008.7
20260831053519 29 17 8.0 20.9 0.00 0.00 0.00 51 1008.7
20260831053018 29 349 8.0 20.9 0.00 0.00 0.00 52 1008.8
20260831052517 29 325 9.7 22.5 0.00 0.00 0.00 52 1008.8
20260831052017 28 341 12.9 22.5 0.00 0.00 0.00 52 1008.6
20260831051526 28 327 11.3 17.7 0.00 0.00 0.00 54 1008.4
20260831051015 30 334 4.8 12.9 0.00 0.00 0.00 52 1008.4
20260831050520 30 51 0.0 17.7 0.00 0.00 0.00 51 1008.5
20260831050015 31 72 3.2 16.1 0.00 0.00 0.00 47 1008.3
20260831045518 31 207 1.6 20.9 0.00 0.00 0.00 45 1008.0
20260831045014 31 213 3.2 20.9 0.00 0.00 0.00 42 1007.6
20260831044517 32 218 6.4 20.9 0.00 0.00 0.00 43 1007.4
20260831044014 32 229 6.4 16.1 0.00 0.00 0.00 44 1007.0
20260831043514 32 233 1.6 17.7 0.00 0.00 0.00 43 1006.7
20260831043014 32 254 4.8 25.7 0.00 0.00 0.00 42 1006.7
20260831042514 33 203 4.8 25.7 0.00 0.00 0.00 41 1006.7
20260831042014 33 209 3.2 24.1 0.00 0.00 0.00 40 1006.7
20260831041516 33 204 4.8 16.1 0.00 0.00 0.00 39 1006.7
20260831041013 34 221 6.4 17.7 0.00 0.00 0.00 39 1006.2
20260831040515 34 153 6.4 17.7 0.00 0.00 0.00 38 1006.1
20260831040021 35 196 6.4 25.7 0.00 0.00 0.00 37 1006.0
20260831035512 36 259 9.7 25.7 0.00 0.00 0.00 36 1005.8
20260831035012 36 225 4.8 11.3 0.00 0.00 0.00 33 1005.6
20260831034512 36 211 1.6 8.0 0.00 0.00 0.00 33 1005.0
20260831034012 36 205 0.0 8.0 0.00 0.00 0.00 33 1004.8
20260831033512 36 273 1.6 8.0 0.00 0.00 0.00 33 1004.8
20260831033012 36 268 1.6 12.9 0.00 0.00 0.00 33 1004.8
20260831032512 36 187 0.0 12.9 0.00 0.00 0.00 33 1004.8
20260831032011 37 310 0.0 4.8 0.00 0.00 0.00 33 1005.0
20260831031511 37 194 1.6 6.4 0.00 0.00 0.00 33 1005.1
20260831031010 37 250 0.0 6.4 0.00 0.00 0.00 32 1005.1
20260831030511 37 228 0.0 4.8 0.00 0.00 0.00 32 1005.0
20260831030010 37 234 0.0 4.8 0.00 0.00 0.00 32 1004.9
20260831025511 37 238 0.0 4.8 0.00 0.00 0.00 32 1004.6
20260831025011 37 243 0.0 6.4 0.00 0.00 0.00 32 1004.5
20260831024510 37 224 1.6 4.8 0.00 0.00 0.00 31 1004.4
20260831024010 37 244 0.0 8.0 0.00 0.00 0.00 31 1004.4
20260831023512 37 230 1.6 8.0 0.00 0.00 0.00 30 1004.4
20260831023009 37 201 0.0 6.4 0.00 0.00 0.00 30 1004.3
20260831022509 37 196 0.0 6.4 0.00 0.00 0.00 30 1004.3
20260831022009 37 197 0.0 4.8 0.00 0.00 0.00 30 1004.2
20260831021509 37 197 0.0 8.0 0.00 0.00 0.00 29 1004.1
20260831021009 37 239 3.2 8.0 0.00 0.00 0.00 29 1004.0
20260831020510 37 234 1.6 9.7 0.00 0.00 0.00 29 1003.9
20260831020009 37 257 1.6 9.7 0.00 0.00 0.00 29 1003.9
20260831015508 37 219 0.0 9.7 0.00 0.00 0.00 29 1003.8
20260831015008 38 223 3.2 9.7 0.00 0.00 0.00 28 1003.7
20260831014508 38 290 0.0 8.0 0.00 0.00 0.00 28 1003.6
20260831014008 38 279 1.6 8.0 0.00 0.00 0.00 29 1003.6
20260831013508 38 167 1.6 6.4 0.00 0.00 0.00 28 1003.6
20260831013009 38 240 0.0 6.4 0.00 0.00 0.00 28 1003.5
20260831012508 38 198 1.6 6.4 0.00 0.00 0.00 28 1003.4
20260831012006 38 254 1.6 9.7 0.00 0.00 0.00 28 1003.4
20260831011514 39 213 3.2 9.7 0.00 0.00 0.00 27 1003.5
20260831011005 39 196 3.2 14.5 0.00 0.00 0.00 27 1003.6
20260831010505 39 255 4.8 14.5 0.00 0.00 0.00 27 1003.6
20260831010005 39 193 0.0 9.7 0.00 0.00 0.00 27 1003.6
20260831005504 39 184 1.6 9.7 0.00 0.00 0.00 27 1003.7
20260831005004 39 202 3.2 8.0 0.00 0.00 0.00 27 1003.7
20260831004504 40 236 1.6 11.3 0.00 0.00 0.00 28 1003.8
20260831004002 40 315 3.2 11.3 0.00 0.00 0.00 27 1003.8
20260831003502 40 313 3.2 11.3 0.00 0.00 0.00 28 1003.7
20260831003003 40 212 1.6 8.0 0.00 0.00 0.00 28 1003.8
20260831002502 40 184 0.0 6.4 0.00 0.00 0.00 28 1003.8
20260831002003 40 186 1.6 9.7 0.00 0.00 0.00 28 1003.8
20260831001504 40 171 1.6 11.3 0.00 0.00 0.00 28 1003.8
20260831001001 40 186 3.2 11.3 0.00 0.00 0.00 29 1003.9
20260831000501 40 286 3.2 14.5 0.00 0.00 0.00 28 1003.9
20260830235559 40 245 3.2 8.0 0.00 0.00 0.00 29 1004.0
20260830235103 40 248 1.6 12.9 0.00 0.00 0.00 29 1004.1
20260830234559 40 321 4.8 16.1 0.00 0.00 0.00 29 1004.1
20260830234059 40 244 8.0 16.1 0.00 0.00 0.00 28 1004.1
20260830233559 40 304 4.8 14.5 0.00 0.00 0.00 28 1004.1
20260830233121 40 273 3.2 12.9 0.00 0.00 0.00 27 1004.2
20260830232558 40 225 3.2 11.3 0.00 0.00 0.00 27 1004.2
20260830232058 41 231 3.2 11.3 0.00 0.00 0.00 27 1004.3
20260830231556 41 190 1.6 6.4 0.00 0.00 0.00 27 1004.3
20260830231101 41 288 0.0 6.4 0.00 0.00 0.00 27 1004.4
20260830230559 40 180 1.6 8.0 0.00 0.00 0.00 27 1004.6
20260830230104 40 193 1.6 11.3 0.00 0.00 0.00 28 1004.6
20260830225555 40 287 3.2 11.3 0.00 0.00 0.00 27 1004.6
20260830225053 40 270 3.2 11.3 0.00 0.00 0.00 27 1004.7
20260830224555 40 290 3.2 11.3 0.00 0.00 0.00 27 1004.8
20260830224050 40 125 3.2 12.9 0.00 0.00 0.00 27 1004.9
20260830223550 40 157 3.2 12.9 0.00 0.00 0.00 28 1005.0
20260830223049 40 244 4.8 12.9 0.00 0.00 0.00 28 1005.2
20260830222549 40 282 6.4 12.9 0.00 0.00 0.00 28 1005.2
20260830222048 40 227 4.8 11.3 0.00 0.00 0.00 28 1005.4
20260830221547 40 190 3.2 12.9 0.00 0.00 0.00 28 1005.4
20260830221048 40 259 1.6 14.5 0.00 0.00 0.00 29 1005.5
20260830220546 40 281 4.8 14.5 0.00 0.00 0.00 28 1005.6
20260830220045 40 275 0.0 14.5 0.00 0.00 0.00 28 1005.7
20260830215543 40 297 3.2 14.5 0.00 0.00 0.00 28 1005.8
20260830215046 40 214 6.4 14.5 0.00 0.00 0.00 28 1005.9
20260830214543 40 231 4.8 12.9 0.00 0.00 0.00 29 1006.0
20260830214043 39 66 1.6 8.0 0.00 0.00 0.00 30 1006.0
20260830213541 40 279 3.2 9.7 0.00 0.00 0.00 28 1006.2
20260830213041 40 254 4.8 12.9 0.00 0.00 0.00 29 1006.3
20260830212540 40 260 4.8 12.9 0.00 0.00 0.00 29 1006.4
20260830212040 40 210 3.2 11.3 0.00 0.00 0.00 29 1006.4
20260830211548 40 175 3.2 12.9 0.00 0.00 0.00 29 1006.5
20260830211040 39 203 3.2 9.7 0.00 0.00 0.00 30 1006.5
20260830210537 39 250 3.2 9.7 0.00 0.00 0.00 31 1006.6
20260830210037 39 315 1.6 9.7 0.00 0.00 0.00 31 1006.7
20260830205540 39 315 1.6 9.7 0.00 0.00 0.00 31 1006.9
20260830205036 39 179 1.6 9.7 0.00 0.00 0.00 31 1007.0
20260830204536 39 215 3.2 11.3 0.00 0.00 0.00 31 1007.0
20260830204036 39 221 3.2 11.3 0.00 0.00 0.00 31 1007.2
20260830203536 39 279 1.6 11.3 0.00 0.00 0.00 31 1007.3
20260830203037 39 217 0.0 8.0 0.00 0.00 0.00 30 1007.3
20260830202535 38 129 1.6 11.3 0.00 0.00 0.00 31 1007.5
20260830202036 38 202 3.2 11.3 0.00 0.00 0.00 31 1007.5
20260830201538 38 302 3.2 11.3 0.00 0.00 0.00 30 1007.6
20260830201034 39 214 4.8 11.3 0.00 0.00 0.00 30 1007.7
20260830200538 39 289 4.8 11.3 0.00 0.00 0.00 30 1007.8
20260830200035 40 226 4.8 11.3 0.00 0.00 0.00 30 1007.9
20260830195535 40 231 3.2 11.3 0.00 0.00 0.00 30 1007.9
20260830195033 39 261 1.6 11.3 0.00 0.00 0.00 31 1007.8
20260830194533 39 355 0.0 11.3 0.00 0.00 0.00 31 1007.9
20260830194033 39 227 1.6 11.3 0.00 0.00 0.00 31 1008.0
20260830193531 39 183 4.8 11.3 0.00 0.00 0.00 31 1008.1
20260830193031 39 252 3.2 8.0 0.00 0.00 0.00 31 1008.1
20260830192530 38 131 1.6 12.9 0.00 0.00 0.00 31 1008.2
20260830192029 38 243 0.0 9.7 0.00 0.00 0.00 31 1008.3
20260830191528 38 121 1.6 9.7 0.00 0.00 0.00 33 1008.4
20260830191027 38 269 1.6 8.0 0.00 0.00 0.00 33 1008.4
20260830190527 38 260 1.6 6.4 0.00 0.00 0.00 32 1008.5
20260830190027 38 265 1.6 6.4 0.00 0.00 0.00 33 1008.6
20260830185525 38 226 1.6 8.0 0.00 0.00 0.00 33 1008.7
20260830185027 38 299 1.6 9.7 0.00 0.00 0.00 33 1008.7
20260830184525 38 192 1.6 9.7 0.00 0.00 0.00 33 1008.9
20260830184023 37 157 1.6 8.0 0.00 0.00 0.00 33 1008.9
20260830183522 37 169 3.2 9.7 0.00 0.00 0.00 33 1009.0
20260830183032 37 208 1.6 9.7 0.00 0.00 0.00 33 1009.1
20260830182521 37 111 3.2 9.7 0.00 0.00 0.00 34 1009.1
20260830182024 37 206 1.6 9.7 0.00 0.00 0.00 34 1009.1
20260830181521 37 260 6.4 9.7 0.00 0.00 0.00 34 1009.2
20260830181020 37 292 3.2 9.7 0.00 0.00 0.00 34 1009.3
20260830180518 37 174 3.2 9.7 0.00 0.00 0.00 33 1009.3
20260830180030 37 252 3.2 9.7 0.00 0.00 0.00 33 1009.4
20260830175516 37 201 1.6 8.0 0.00 0.00 0.00 34 1009.4